Regional Weather Roundup
Issued by NWS Cleveland, OH

Home | Current Version | Previous Version | Graphics & Text | Print | Product List | Glossary On
Versions: 1 2 3 4 5 6 7 8 9 10 11 12 13 14 15 16 17 18 19 20 21 22 23 24 25 26 27 28 29 30 31 32 33 34 35 36 37 38 39 40 41 42 43 44 45 46 47 48 49 50
000
ASUS41 KCLE 260100
RWRCLE
OHIO REGIONAL WEATHER ROUNDUP
NATIONAL WEATHER SERVICE WILMINGTON, OH
900 PM EDT THU AUG 25 2016

NOTE: "FAIR" INDICATES FEW OR NO CLOUDS BELOW 12,000 FEET WITH NO
SIGNIFICANT WEATHER AND/OR OBSTRUCTIONS TO VISIBILITY.

OHZ001>008-015>018-024>027-034-035-043-044-260200-
   NORTHWEST OHIO

CITY           SKY/WX    TMP DP  RH WIND       PRES   REMARKS
DEFIANCE       MOCLDY    79  69  71 W3        30.02R
FINDLAY        FAIR      78  68  71 W8        30.02R
TOLEDO EXPRESS FAIR      78  70  76 W8        30.01R
TOLEDO EXEC    FAIR      79  70  74 W8        30.01R
LIMA           FAIR      77  71  82 W8        30.04R
$$

OHZ009>014-019>023-028>033-038-089-260200-
   NORTHEAST OHIO

CITY           SKY/WX    TMP DP  RH WIND       PRES   REMARKS
CLE-HOPKINS    FAIR      83  67  58 W9        30.02R
CLE-LAKEFRONT  FAIR      80  73  79 W10       29.98R
CUY CO. ARPT   PTCLDY    81  73  78 MISG      30.00S
LORAIN-ELYRIA  FAIR      79  67  66 W8        30.02R
ASHTABULA      FAIR      76  73  91 W8        30.00S
AKRON-CANTON   MOCLDY    80  73  79 NW5       30.02R
WOOSTER        NOT AVBL
MANSFIELD      FAIR      79  69  71 W7        30.05R
YOUNGSTOWN     MOCLDY    74  72  93 W5        30.02R
$$

OHZ042-051>053-060>062-070>072-077>081-260200-
  SOUTHWEST OHIO

CITY           SKY/WX    TMP DP  RH WIND       PRES   REMARKS
CINC-COVINGTON FAIR      83  73  72 SW5       30.06S
CINC-LUNKEN    FAIR      79  74  84 CALM      30.04S
HAMILTON       FAIR      78  73  84 CALM      30.05S
DAYTON         NOT AVBL
WRIGHT-PAT AFB FAIR      82  72  73 SW7       30.04R
DAYTON GENERAL FAIR      83  71  67 SW6       30.05S
WILMINGTON     FAIR      77  74  90 SW6       30.06R
$$

OHZ036-037-039>041-045>050-054>059-063>069-073>076-082>088-260200-
  CENTRAL AND SOUTHEAST OHIO

CITY           SKY/WX    TMP DP  RH WIND       PRES   REMARKS
COLUMBUS       FAIR      83  72  69 SW8       30.02S
OSU AIRPORT    FAIR      83  73  72 SW7       30.03S
BOLTON FIELD   NOT AVBL
RICKENBACK AFB NOT AVBL
NEWARK         FAIR      81  74  79 SW5       30.03R
MARION         FAIR      79  70  74 NW6       30.04R
LANCASTER      FAIR      79  74  84 CALM      30.04S
ZANESVILLE     FAIR      82  73  74 SW3       30.04R
NEW PHILLY     FAIR      84  73  69 W5        30.03R HX  90
$$




USA.gov is the U.S. government's official web portal to all federal, state and local government web resources and services.